Regional Weather Roundup
Issued by NWS

Home | Current Version | Previous Version | Graphics & Text | Print | Product List | Glossary On
Versions: 1 2 3 4 5 6 7 8 9 10 11 12 13 14 15 16 17 18 19 20 21 22 23 24 25 26 27
724
ASUS43 KDMX 212107
RWRIA

WEATHER ROUNDUP FOR IOWA
NATIONAL WEATHER SERVICE DES MOINES IA
400 PM CDT THU MAY 21 2015

NOTE: "FAIR" INDICATES FEW OR NO CLOUDS BELOW 12,000 FEET WITH NO
SIGNIFICANT WEATHER AND/OR OBSTRUCTIONS TO VISIBILITY.

* - THESE STATIONS ARE NOT NWS STATIONS...THUS NOT UNDER NWS
QUALITY CONTROL.  THEY ALSO DO NOT REPORT WEATHER SUCH
AS PRECIPITATION OR FOG.

IAZ001>003-012>014-020>022-031>034-043>046-212200-
   NORTHWEST IOWA

CITY           SKY/WX    TMP DP  RH WIND       PRES   REMARKS
CARROLL *      SUNNY     75  36  23 NW21G28   30.13S
CHEROKEE *     MOSUNNY   73  39  29 NW15      30.12F
DENISON *      SUNNY     72  39  30 NW12G21   30.13F
LE MARS *      SUNNY     73  36  25 W13G21    30.15F
ORANGE CITY *  MOSUNNY   72  39  30 NW17      30.13F
SHELDON *      MOSUNNY   73  32  21 NW24G30   30.10F
SIOUX CITY     SUNNY     75  35  23 NW10      30.16F
SPENCER        MOSUNNY   75  35  23 NW20G32   30.09F
STORM LAKE *   SUNNY     73  36  25 NW18G25   30.13F
$$

IAZ055>058-069>071-079>083-090>094-212200-
   SOUTHWEST IOWA

CITY           SKY/WX    TMP DP  RH WIND       PRES   REMARKS
ATLANTIC *     SUNNY     72  43  35 N10       30.16F
AUDUBON *      SUNNY     72  36  26 NW8       30.16F
CLARINDA *     SUNNY     70  41  35 W13       30.21S
COUNCIL BLFS * SUNNY     72  43  35 W8G17     30.19F
CRESTON *      SUNNY     68  45  42 W15G23    30.17F
HARLAN  *      SUNNY     72  37  28 NW10G22   30.20S
LAMONI         SUNNY     72  47  40 NW15      30.17F
RED OAK *      SUNNY     72  41  33 NW12      30.19S
SHENANDOAH *   SUNNY     72  41  33 W12G17    30.20F
$$

IAZ047>049-059>061-072>074-084-212200-
   CENTRAL IOWA

CITY           SKY/WX    TMP DP  RH WIND       PRES   REMARKS
AMES           MOSUNNY   75  39  27 NW21G26   30.09F
ANKENY *       SUNNY     73  39  29 NW17G31   30.10F
CHARITON *     SUNNY     72  43  35 NW10G22   30.13F
DES MOINES     MOSUNNY   76  36  23 NW15G25   30.11F
GRINNELL*      MOSUNNY   73  39  29 W14G22    30.08F
KNOXVILLE *    SUNNY     73  37  27 W16G24    30.10F
MARSHALLTOWN   MOSUNNY   74  42  31 NW20G30   30.06F
PELLA *        SUNNY     73  46  38 W14G24    30.11S
PERRY *          N/A     73  37  27 NW15G23   30.11F
$$

IAZ004>006-015-016-023>025-035-036-212200-
   NORTH CENTRAL IOWA

CITY           SKY/WX    TMP DP  RH WIND       PRES   REMARKS
ALGONA *       MOSUNNY   75  36  23 NW22G30   30.07F
CLARION *      MOSUNNY   75  36  23 NW22G28   30.06F
ESTHERVILLE    SUNNY     74  34  23 NW28G36   30.08F
FORT DODGE *   MOSUNNY   73  41  31 W16G22    30.09F
MASON CITY     SUNNY     75  30  19 NW22G36   30.05F
FOREST CITY *  SUNNY     70  32  24 NW18G28   30.05S
IOWA FALLS *     N/A     75  36  23 NW17G29   30.07F
$$

IAZ007>011-017>019-026>030-037>042-050>054-066-212200-
   NORTHEAST IOWA

CITY           SKY/WX    TMP DP  RH WIND       PRES   REMARKS
CEDAR RAPIDS   SUNNY     71  44  37 VRB5      30.06F
CHARLES CITY * SUNNY     75  30  19 NW25G36   30.03S
CLINTON *      MOSUNNY   72  39  30 W12       30.09F
DECORAH *      SUNNY     72  32  23 NW10G20   29.99F
DUBUQUE        SUNNY     68  44  42 W13       30.05F
MONTICELLO *   SUNNY     70  46  43 W13       30.05F
OELWEIN *      MOSUNNY   70  45  40 SW12G18   30.03F
WATERLOO       MOSUNNY   74  40  29 NW18G29   30.03F
$$

IAZ064-065-067-068-078-212200-
   EAST CENTRAL IOWA

CITY           SKY/WX    TMP DP  RH WIND       PRES   REMARKS
DAVENPORT      SUNNY     71  37  28 W12G22    30.08F
IOWA CITY      SUNNY     71  43  36 W10G17    30.09F
MT. PLEASANT * SUNNY     70  39  32 NW8       30.11F
MUSCATINE *    SUNNY     72  39  30 NW8G18    30.09F
QUAD CITIES    SUNNY     71  41  33 W16G22    30.07F
$$

IAZ062-063-075>077-085>089-095>099-212200-
   SOUTHEAST IOWA

CITY           SKY/WX    TMP DP  RH WIND       PRES   REMARKS
BURLINGTON     SUNNY     68  43  40 NW6       30.12F
FAIRFIELD *    SUNNY     72  39  30 W10G18    30.11F
FORT MADISON * SUNNY     68  45  42 NW9       30.13F
KEOKUK *       MOSUNNY   70  45  40 W14       30.13F
OSKALOOSA *      N/A     73  39  29 W13       30.10F
CENTERVILLE *  SUNNY     70  70 100 W14       30.16F
OTTUMWA        SUNNY     71  44  37 NW12G18   30.11F
WASHINGTON *   SUNNY     72  41  33 W10G21    30.11F
$$

ABBREVIATIONS USED IN REMARKS
   TC - TEMPERATURES IN CELSIUS
  WCI - WIND CHILL INDEX
   HX - HEAT INDEX
  VSB - VISIBILITY
$$




USA.gov is the U.S. government's official web portal to all federal, state and local government web resources and services.